#timestamp,LO_Frequency,Hit,StdDev 
1555992015.1,286047002.7,P
1555992016.0,286047002.7,N
1555992035.8,286047002.1,N
1555992055.6,286047002.1,N
1555992075.5,286047002.8,N
1555992095.3,286046999.9,N
1555992115.1,286047000.6,N
1555992135.9,286047000.4,N
1555992155.7,286047000.0,N
1555992175.6,286046999.7,N
1555992195.4,286047000.2,N
1555992215.2,286047000.0,N
1555992235.1,286047001.0,N
1555992236.0,286047001.0,N
1555992255.8,286046998.2,N
1555992275.6,286046998.4,N
1555992295.5,286047000.3,N
1555992315.3,286047000.3,N
1555992335.2,286047000.4,N
1555992355.9,286047000.1,N
1555992375.7,286047002.2,N
1555992395.6,286047000.5,N
1555992415.4,286047002.3,N
1555992435.2,286047002.8,N
1555992455.1,286047000.1,N
1555992456.0,286047000.1,N
1555992475.8,286047000.6,N
1555992495.7,286047000.5,N
1555992515.5,286046999.8,N
1555992535.3,286047003.7,Y
1555992555.2,286047004.1,P
1555992575.0,286047002.5,N
1555992575.9,286047002.5,N
1555992595.8,286047003.1,N
1555992615.6,286047002.4,N
1555992635.4,286047000.0,N
1555992655.3,286047002.1,N
1555992675.1,286047000.5,N
1555992695.8,286047000.7,N
1555992715.7,286046999.1,N
1555992735.5,286046996.9,N
1555992755.4,286046996.6,N
1555992775.2,286046995.0,N
1555992795.0,286046995.2,N
1555992795.9,286046995.2,N
1555992815.8,286046995.3,N
1555992835.6,286046993.9,N
1555992855.4,286046998.0,N
1555992875.3,286046996.5,N
1555992895.1,286047000.9,N
1555992915.8,286047000.9,N
1555992935.7,286047000.9,N
1555992955.5,286047000.2,N
1555992975.4,286047003.2,N
1555992995.2,286047005.5,N
1555993015.0,286047003.8,N
1555993015.9,286047003.8,N
1555993035.8,286047001.5,N
1555993055.7,286047002.1,N
1555993075.6,286046999.8,N
1555993095.4,286047001.5,N
1555993115.3,286047003.0,N
1555993135.1,286047003.2,N
1555993136.0,286047003.2,N
1555993155.8,286047006.0,N
1555993175.7,286047003.6,N
1555993195.5,286047004.2,N
1555993215.4,286047003.6,N
1555993235.2,286047002.1,N
1555993255.0,286047001.8,N
1555993275.4,286047002.2,N
1555993295.2,286047002.7,N
1555993315.1,286046998.3,N
1555993316.0,286046998.3,N
1555993335.8,286046998.4,N
1555993355.7,286047000.3,N
1555993375.5,286047000.0,N
1555993395.3,286047002.5,N
1555993415.2,286047001.3,N
1555993435.0,286047002.9,N
1555993435.9,286047002.9,N
1555993455.1,286047004.8,N
1555993456.0,286047004.8,N
1555993475.8,286047003.2,N
1555993495.6,286047003.8,N
1555993515.5,286047003.2,N
1555993535.3,286047001.6,N
1555993555.1,286047000.5,N
1555993575.9,286047003.9,N
1555993595.7,286047003.9,N
1555993615.6,286047003.3,N
1555993635.4,286047004.7,N
1555993655.2,286047003.1,N
1555993675.1,286047003.8,N
1555993676.0,286047003.8,N
1555993695.8,286047005.6,Y
1555993715.6,286047004.2,P
1555993735.5,286047004.0,P
1555993755.3,286047002.9,P
1555993775.2,286047003.5,Y
1555993795.9,286046998.3,P
1555993815.7,286046998.2,N
1555993835.6,286046998.6,N
1555993855.4,286047000.7,N
1555993875.3,286047002.0,N
1555993895.1,286047002.7,N
1555993896.0,286047002.7,N
1555993915.8,286047000.3,N
1555993935.7,286047001.0,N
1555993955.5,286047000.1,N
1555993975.3,286047001.3,N
1555993995.2,286046999.8,N
1555994015.0,286047001.0,N
1555994015.9,286047001.0,N
1555994035.8,286046998.2,N
1555994055.6,286047002.7,N
1555994075.4,286046998.9,N
1555994095.3,286046997.4,N
1555994115.1,286046997.7,N
1555994135.8,286046994.9,N
1555994155.7,286046997.8,N
1555994175.5,286046999.3,N
1555994195.4,286046998.4,N
1555994215.2,286046999.5,N
1555994235.0,286046999.3,N
1555994235.9,286046999.3,N
1555994255.8,286046998.2,N
1555994275.6,286047000.4,N
1555994295.4,286046999.8,N
1555994315.3,286047002.0,N
1555994335.1,286046998.2,N
1555994355.9,286046996.8,N
1555994375.7,286046995.4,N
1555994395.5,286046995.0,N
1555994415.4,286046997.5,N
1555994435.2,286046996.7,N
1555994455.0,286047001.0,N
1555994455.9,286047001.0,N
1555994475.8,286047002.1,N
1555994495.6,286047003.2,N
1555994515.5,286047000.5,N
1555994535.3,286046998.7,N
1555994555.1,286046999.4,N
1555994575.9,286046999.2,N
1555994595.7,286046998.8,N
1555994615.5,286046999.1,N
1555994635.4,286046999.0,N
1555994655.2,286046999.1,N
1555994675.1,286046999.1,N
1555994676.0,286046999.1,N
1555994695.8,286046998.9,N
1555994715.6,286047000.9,N
1555994735.5,286046998.2,N
1555994755.3,286046998.3,N
1555994775.1,286046996.5,N
1555994795.9,286046999.4,N
1555994815.7,286046999.5,N
1555994835.6,286046998.4,N
1555994855.4,286046998.6,N
1555994875.2,286047000.9,N
1555994895.4,286046998.6,N
1555994915.3,286046999.3,N
1555994935.1,286047000.7,N
1555994955.9,286046999.8,N
1555994975.7,286047000.8,N
1555994995.5,286047000.7,N
1555995015.4,286047001.2,N
1555995035.2,286047002.8,N
1555995055.0,286047001.7,N
1555995055.9,286047001.7,N
1555995075.8,286046999.9,N
1555995095.6,286047000.6,N
1555995115.5,286047002.5,N
1555995135.3,286047001.8,N
1555995155.1,286047003.6,N
1555995175.9,286047002.0,N
1555995195.7,286047000.9,N
1555995215.6,286046999.0,N
1555995235.4,286046999.5,N
1555995255.2,286046996.9,N
1555995275.1,286046996.8,N
1555995276.0,286046996.8,N
1555995295.8,286046996.5,N
1555995315.6,286046996.9,N
1555995335.5,286046999.3,N
1555995355.3,286046999.7,N
1555995375.2,286046999.8,N
1555995395.9,286047000.8,N
1555995415.7,286046998.4,N
1555995435.6,286047006.0,Y
1555995455.4,286047020.2,P
1555995475.2,286047017.8,N
1555995495.1,286047014.8,N
1555995496.0,286047014.8,N
1555995515.8,286047011.0,N
1555995535.7,286047010.8,N
1555995555.5,286047008.3,N
1555995575.3,286047006.5,N
1555995595.2,286047007.1,N
